Home > Weather > Bytom > Past weeks

Flag for Poland Past Weather in Bytom, Poland — Yesterday and Last 2 Weeks

Now
66 °F

Drizzle. More clouds than sun.


Feels Like: 66 °F
Forecast: 57 / 72 °F
Wind: 13 mph from Northwest

Location: Katowice Airport

Current Time: Jun 26, 2016 at 3:56:59 PM

Latest Report: Jun 26, 2016 at 3:30 PM


Visibility: N/A

Pressure: 30.01 "Hg

Humidity: 94%

Dew Point: 64 °F

Location of BytomLocation

Past Weather in Bytom — Graph

°F

Bytom Temperature Yesterday

Maximum temperature yesterday: 93 °F (at 4:30 PM)
Minimum temperature yesterday: 66 °F (at 2:00 AM)
Average temperature yesterday: 78 °F

High & Low Weather Summary for the Past Weeks

 TemperatureHumidityPressure
High93 °F (Jun 25, 4:30 PM)100% (Jun 12, 2:30 AM)30.30 "Hg (Jun 12, 2:30 AM)
Low41 °F (Jun 12, 2:30 AM)30% (Jun 25, 2:30 PM)29.47 "Hg (Jun 17, 9:00 AM)
Average67 °F69%29.92 "Hg
* Reported Jun 11 3:00 PM — Jun 26 3:00 PM, Bytom, Weather by CustomWeather, © 2016

Note: Actual official high and low records may vary slightly from our data, if they occured in-between our weather recording intervals... More about our weather records

Advertising

Bytom Weather History for the Previous 24 Hours

Scroll right to see more
 ConditionsComfort  
Time TempWeatherWind HumidityBarometerVisibility
3:00 PM
Sun, Jun 26
68 °FScattered clouds.10 mph94%29.98 "HgN/A
2:30 PM68 °FBroken clouds.8 mph94%29.98 "HgN/A
2:00 PM68 °FSprinkles. Passing clouds.8 mph94%29.98 "HgN/A
1:30 PM68 °FSprinkles. Partly sunny.8 mph94%29.98 "Hg4 mi
1:00 PM68 °FThunderstorms. Mostly cloudy.10 mph94%29.98 "Hg2 mi
12:30 PM73 °FThunderstorms. Broken clouds.13 mph74%29.95 "HgN/A
12:00 PM77 °FScattered clouds.10 mph65%29.95 "HgN/A
11:30 AM77 °FSprinkles. Scattered clouds.5 mph65%29.95 "HgN/A
11:00 AM79 °FPassing clouds.6 mph61%29.95 "HgN/A
10:30 AM77 °FPassing clouds.8 mph65%29.95 "HgN/A
10:00 AM75 °FPassing clouds.9 mph69%29.95 "HgN/A
9:30 AM75 °FSunny.13 mph69%29.95 "Hg10 mi
9:00 AM75 °FSunny.13 mph69%29.95 "Hg10 mi
8:30 AM75 °FSunny.10 mph69%29.95 "Hg10 mi
8:00 AM77 °FSunny.9 mph65%29.92 "Hg10 mi
7:30 AM75 °FSunny.6 mph65%29.92 "Hg10 mi
7:00 AM73 °FPassing clouds.6 mph69%29.92 "HgN/A
6:30 AM70 °FSunny.1 mph78%29.92 "Hg10 mi
6:00 AM72 °FSunny.5 mph69%29.92 "Hg10 mi
5:30 AM68 °FPassing clouds.3 mph78%29.92 "HgN/A
5:00 AM66 °FClear.1 mph78%29.92 "Hg10 mi
4:30 AM70 °FClear.7 mph69%29.92 "Hg10 mi
4:00 AM70 °FClear.9 mph69%29.89 "Hg10 mi
3:30 AM66 °FClear.7 mph78%29.89 "Hg10 mi
3:00 AM66 °FClear.7 mph78%29.92 "Hg10 mi
2:30 AM68 °FClear.7 mph73%29.92 "Hg10 mi
2:00 AM68 °FClear.8 mph73%29.92 "Hg10 mi
1:30 AM68 °FClear.7 mph78%29.92 "Hg10 mi
1:00 AM68 °FClear.8 mph78%29.92 "Hg10 mi
12:30 AM68 °FClear.8 mph78%29.92 "Hg10 mi
12:00 AM68 °FClear.5 mph78%29.92 "Hg10 mi
11:30 PM
Sat, Jun 25
70 °FClear.6 mph73%29.92 "Hg10 mi
11:00 PM72 °FClear.7 mph69%29.92 "Hg10 mi
10:30 PM73 °FClear.6 mph69%29.92 "Hg10 mi
10:00 PM75 °FClear.3 mph61%29.92 "Hg10 mi
9:30 PM77 °FPassing clouds.3 mph57%29.92 "HgN/A
9:00 PM77 °FPassing clouds.13 mph54%29.92 "HgN/A
8:30 PM81 °FSprinkles. Passing clouds.14 mph42%29.89 "HgN/A
8:00 PM81 °FScattered clouds.13 mph48%29.89 "HgN/A
7:30 PM81 °FScattered clouds.17 mph45%29.89 "HgN/A
7:00 PM86 °FThundershowers. Scattered clouds.14 mph46%29.89 "HgN/A
6:30 PM90 °FScattered clouds.14 mph38%29.89 "HgN/A
6:00 PM91 °FPassing clouds.13 mph34%29.89 "HgN/A
5:30 PM91 °FPassing clouds.13 mph34%29.89 "HgN/A
5:00 PM91 °FPassing clouds.14 mph36%29.89 "HgN/A
4:30 PM93 °FPassing clouds.13 mph34%29.89 "HgN/A
4:00 PM91 °FPassing clouds.10 mph36%29.92 "HgN/A
3:30 PM91 °FPassing clouds.14 mph34%29.92 "HgN/A
3:00 PM91 °FSunny.13 mph32%29.92 "Hg10 mi
Weather by CustomWeather, © 2016

See weather overviewHow to use our weather pages